Weather History for KOLF - October, 2013

Change the Weather History Date:

Wednesday, October 9, 2013

  Actual Average Record
Temperature  
Mean Temperature 45 °F -  
Max Temperature 63 °F 62 °F 89 °F (2004)
Min Temperature 26 °F 32 °F 19 °F (2000)
Degree Days  
Heating Degree Days 20    
Cooling Degree Days 0    
Moisture  
Dew Point 32 °F    
Average Humidity 62    
Maximum Humidity 82    
Minimum Humidity 37    
Precipitation  
Precipitation 0.08 in 0.02 in 0.28 in (2010)
Month to date precipitation 0.08 0.23  
Year to date precipitation 12.87 10.91  
Sea Level Pressure  
Sea Level Pressure 30.05 in    
Wind  
Wind Speed 3 mph (ESE)    
Max Wind Speed 10 mph    
Max Gust Speed -    
Visibility 10 miles    
Events Rain    
T = Trace of Precipitation, MM = Missing Value Source: NWS Daily Summary

Daily Weather History Graph

Daily Weather History Graph

Search for Another Location

Airport or City:

Trip Planner

Search our weather history database for the weather conditions in past years. The results will help you decide how hot, cold, wet, or windy it might be!

Date:

Astronomy

Oct. 09, 2013 Rise Set
Actual Time 7:13 AM MDT 6:24 PM MDT
Civil Twilight 6:42 AM MDT 6:55 PM MDT
Nautical Twilight 6:06 AM MDT 7:31 PM MDT
Astronomical Twilight 5:29 AM MDT 8:07 PM MDT
Moon 12:29 PM MDT (10/9) 9:43 PM MDT (10/9)
Length of Visible Light 12h 13m
Length of Day
11h 11m
Waxing Crescent, 26% of the Moon is Illuminated
Oct 9
Waxing Crescent
Oct 11
First Quarter
Oct 18
Full
Oct 26
Last Quarter
Nov 3
New

Hourly Weather History & Observations

Time (MDT) Temp. Windchill Dew Point Humidity Pressure Visibility Wind Dir Wind Speed Gust Speed Precip Events Conditions
12:53 AM 33.1 °F - 25.0 °F 72% 29.95 in 10.0 mi Calm Calm - N/A   Clear
1:53 AM 34.0 °F - 25.0 °F 70% 29.97 in 10.0 mi Calm Calm - N/A   Clear
2:53 AM 28.9 °F 22.8 °F 23.0 °F 78% 29.99 in 10.0 mi West 5.8 mph - N/A   Clear
3:53 AM 32.0 °F 27.5 °F 25.0 °F 75% 30.01 in 10.0 mi SW 4.6 mph - N/A   Clear
4:53 AM 32.0 °F 26.4 °F 26.1 °F 79% 30.03 in 10.0 mi South 5.8 mph - N/A   Clear
5:53 AM 30.9 °F - 25.0 °F 79% 30.07 in 10.0 mi Calm Calm - N/A   Clear
6:53 AM 28.9 °F 25.2 °F 24.1 °F 82% 30.10 in 10.0 mi WSW 3.5 mph - N/A   Clear
7:53 AM 30.0 °F - 24.1 °F 79% 30.13 in 10.0 mi Calm Calm - N/A   Clear
8:53 AM 39.0 °F 36.8 °F 32.0 °F 76% 30.14 in 10.0 mi South 3.5 mph - N/A   Clear
9:53 AM 50.0 °F - 39.0 °F 66% 30.13 in 10.0 mi Variable 4.6 mph - N/A   Clear
10:53 AM 54.0 °F - 37.9 °F 55% 30.13 in 10.0 mi Calm Calm - N/A   Clear
11:53 AM 55.9 °F - 37.0 °F 49% 30.13 in 10.0 mi Calm Calm - N/A   Clear
12:53 PM 59.0 °F - 37.0 °F 44% 30.12 in 10.0 mi Variable 3.5 mph - N/A   Clear
1:53 PM 60.1 °F - 36.0 °F 41% 30.09 in 10.0 mi SE 3.5 mph - N/A   Clear
2:53 PM 62.1 °F - 36.0 °F 38% 30.07 in 10.0 mi East 10.4 mph - N/A   Clear
3:53 PM 62.1 °F - 35.1 °F 37% 30.06 in 10.0 mi ESE 4.6 mph - N/A   Clear
4:53 PM 61.0 °F - 35.1 °F 38% 30.05 in 10.0 mi SE 5.8 mph - N/A   Clear
5:53 PM 59.0 °F - 35.1 °F 41% 30.04 in 10.0 mi East 5.8 mph - N/A   Clear
6:53 PM 51.1 °F - 35.1 °F 54% 30.04 in 10.0 mi East 5.8 mph - N/A   Clear
7:53 PM 44.1 °F 41.5 °F 32.0 °F 63% 30.03 in 10.0 mi ENE 4.6 mph - N/A   Clear
8:53 PM 44.1 °F 41.5 °F 33.1 °F 65% 30.01 in 10.0 mi ENE 4.6 mph - N/A   Clear
9:53 PM 43.0 °F 39.5 °F 33.1 °F 68% 30.00 in 10.0 mi East 5.8 mph - N/A   Clear
10:53 PM 44.1 °F 42.5 °F 34.0 °F 68% 29.99 in 10.0 mi ENE 3.5 mph - N/A   Overcast
11:53 PM 48.0 °F - 37.9 °F 68% 29.97 in 7.0 mi Calm Calm - 0.00 in Rain Light Rain